User: anonymous   Login
Location: Unspecified
(0.0000°N, 0.0000°E)
Time: 08:42:02
(UTC+00:00)
Language:

Gonets-D1 - Orbit

View from above orbital plane
View from above orbital plane
View from above satellite
View from above satellite

Ground track
Ground track

The orbit data is extracted from the following two-line orbital elements,

1 24726U 97006B   17293.50445287 +.00000017 +00000-0 +36328-4 0  9994
2 24726 082.5957 111.6129 0005987 056.7583 303.4080 12.61336672951968
Epoch (UTC): 20 October 2017 12:06:24
Eccentricity: 0.0005987
inclination: 82.5957°
perigee height: 1413 km
apogee height: 1422 km
right ascension of ascending node: 111.6129°
argument of perigee: 56.7583°
revolutions per day: 12.61336672
mean anomaly at epoch: 303.4080°
orbit number at epoch: 95196

The dashed part of the orbit path shows where the satellite is in the earth's shadow,  

DLR